When you browse on this site, cookies collect data to enhance your experience and personalize the content and advertising you see.
Visit our Privacy Policy to learn more. By continuing to use the site, you agree to this use of cookies and data.
  • In Österreich
  • Länderverzeichnis
  • Für 7 Tage
  • Wassertemperatur
  • Wetterkarte
  • News
  • Widgets
  • user-avatar
    Anmelden

    Stündliche Wetter Malye Steblevichi

    Heute, 28 Mai, Donnerstag

    Zeit Temperatur Niederschläge Wind Luftdruck Luftfeuchtigkeit
    00:00 +10°C° 0 mm 0 m/S 755 mmHg 88%
    01:00 +9°C° 0 mm 0 m/S 755 mmHg 89%
    02:00 +9°C° 0 mm 0 m/S 755 mmHg 88%
    03:00 +9°C° 0 mm 0 m/S 755 mmHg 88%
    04:00 +9°C° 0 mm 0 m/S 755 mmHg 88%
    05:00 +9°C° 0 mm 0 m/S 754 mmHg 89%
    06:00 +11°C° 0 mm 0 m/S 754 mmHg 83%
    07:00 +14°C° 0 mm 1 m/S 754 mmHg 78%
    08:00 +16°C° 0 mm 1 m/S 754 mmHg 72%
    09:00 +17°C° 0.2 mm 2 m/S 754 mmHg 67%
    10:00 +18°C° 0.2 mm 2 m/S 754 mmHg 61%
    11:00 +19°C° 0.2 mm 2 m/S 753 mmHg 56%
    12:00 +20°C° 0.1 mm 3 m/S 753 mmHg 55%
    13:00 +20°C° 0.1 mm 3 m/S 752 mmHg 55%
    14:00 +21°C° 0.1 mm 4 m/S 752 mmHg 54%
    15:00 +20°C° 0.3 mm 4 m/S 752 mmHg 59%
    16:00 +20°C° 0.3 mm 4 m/S 751 mmHg 64%
    17:00 +19°C° 0.3 mm 4 m/S 751 mmHg 68%
    18:00 +18°C° 0.3 mm 3 m/S 751 mmHg 74%
    19:00 +16°C° 0.3 mm 3 m/S 751 mmHg 81%
    20:00 +13°C° 0.3 mm 3 m/S 750 mmHg 87%
    21:00 +13°C° 0.1 mm 3 m/S 750 mmHg 89%
    22:00 +12°C° 0.1 mm 3 m/S 750 mmHg 91%
    23:00 +12°C° 0.1 mm 3 m/S 749 mmHg 93%

    Morgen, 29 Mai, Freitag

    Zeit Temperatur Niederschläge Wind Luftdruck Luftfeuchtigkeit
    00:00 +11°C° 0.4 mm 3 m/S 749 mmHg 94%
    01:00 +11°C° 0.4 mm 3 m/S 748 mmHg 95%
    02:00 +11°C° 0.4 mm 3 m/S 748 mmHg 96%
    03:00 +11°C° 3 mm 4 m/S 748 mmHg 96%
    04:00 +10°C° 3 mm 5 m/S 747 mmHg 95%
    05:00 +10°C° 3 mm 6 m/S 747 mmHg 95%
    06:00 +10°C° 1.8 mm 6 m/S 746 mmHg 95%
    07:00 +10°C° 1.8 mm 7 m/S 746 mmHg 95%
    08:00 +10°C° 1.8 mm 7 m/S 746 mmHg 94%
    09:00 +11°C° 0.2 mm 7 m/S 746 mmHg 94%
    10:00 +11°C° 0.2 mm 7 m/S 746 mmHg 93%
    11:00 +11°C° 0.2 mm 7 m/S 746 mmHg 92%
    12:00 +12°C° 1.3 mm 7 m/S 746 mmHg 92%
    13:00 +12°C° 1.3 mm 7 m/S 746 mmHg 93%
    14:00 +12°C° 1.3 mm 7 m/S 745 mmHg 93%
    15:00 +13°C° 3.5 mm 6 m/S 745 mmHg 93%
    16:00 +13°C° 3.5 mm 6 m/S 745 mmHg 94%
    17:00 +13°C° 3.5 mm 5 m/S 745 mmHg 94%
    18:00 +13°C° 0.3 mm 5 m/S 745 mmHg 94%
    19:00 +13°C° 0.3 mm 5 m/S 745 mmHg 94%
    20:00 +13°C° 0.3 mm 5 m/S 744 mmHg 94%
    21:00 +13°C° 0.2 mm 5 m/S 744 mmHg 95%
    22:00 +13°C° 0.2 mm 4 m/S 744 mmHg 95%
    23:00 +13°C° 0.2 mm 4 m/S 744 mmHg 96%

    übermorgen, 30 Mai, Samstag

    Zeit Temperatur Niederschläge Wind Luftdruck Luftfeuchtigkeit
    00:00 +12°C° 0.2 mm 4 m/S 744 mmHg 96%
    01:00 +12°C° 0.2 mm 4 m/S 744 mmHg 96%
    02:00 +12°C° 0.2 mm 3 m/S 744 mmHg 96%
    03:00 +12°C° 0.1 mm 3 m/S 744 mmHg 96%
    04:00 +11°C° 0.1 mm 3 m/S 744 mmHg 96%
    05:00 +11°C° 0.1 mm 3 m/S 744 mmHg 97%
    06:00 +12°C° 0 mm 3 m/S 744 mmHg 95%
    07:00 +14°C° 0 mm 3 m/S 744 mmHg 93%
    08:00 +16°C° 0 mm 3 m/S 744 mmHg 91%
    09:00 +16°C° 0.5 mm 3 m/S 744 mmHg 92%
    10:00 +16°C° 0.5 mm 3 m/S 744 mmHg 94%
    11:00 +17°C° 0.5 mm 4 m/S 744 mmHg 95%
    12:00 +17°C° 1.6 mm 4 m/S 743 mmHg 95%
    13:00 +16°C° 1.6 mm 5 m/S 743 mmHg 94%
    14:00 +17°C° 1.6 mm 6 m/S 743 mmHg 94%
    15:00 +16°C° 4.3 mm 7 m/S 742 mmHg 94%
    16:00 +16°C° 4.3 mm 7 m/S 742 mmHg 95%
    17:00 +16°C° 4.3 mm 8 m/S 741 mmHg 95%
    18:00 +16°C° 0.4 mm 8 m/S 741 mmHg 94%
    19:00 +16°C° 0.4 mm 8 m/S 741 mmHg 93%
    20:00 +16°C° 0.4 mm 8 m/S 740 mmHg 92%
    21:00 +16°C° 0.3 mm 8 m/S 740 mmHg 92%
    22:00 +16°C° 0.3 mm 8 m/S 740 mmHg 91%
    23:00 +16°C° 0.3 mm 8 m/S 740 mmHg 91%

    31 Mai, Sonntag

    Zeit Temperatur Niederschläge Wind Luftdruck Luftfeuchtigkeit
    00:00 +16°C° 0.3 mm 8 m/S 741 mmHg 91%
    01:00 +16°C° 0.3 mm 8 m/S 741 mmHg 91%
    02:00 +16°C° 0.3 mm 8 m/S 741 mmHg 92%
    03:00 +15°C° 0.2 mm 7 m/S 741 mmHg 93%
    04:00 +14°C° 0.2 mm 6 m/S 742 mmHg 93%
    05:00 +14°C° 0.2 mm 5 m/S 742 mmHg 94%
    06:00 +14°C° 0.1 mm 5 m/S 743 mmHg 93%
    07:00 +14°C° 0.1 mm 5 m/S 743 mmHg 93%
    08:00 +14°C° 0.1 mm 5 m/S 744 mmHg 92%
    09:00 +15°C° 0.2 mm 5 m/S 744 mmHg 91%
    10:00 +15°C° 0.2 mm 5 m/S 745 mmHg 91%
    11:00 +15°C° 0.2 mm 5 m/S 745 mmHg 90%
    12:00 +15°C° 0.4 mm 5 m/S 745 mmHg 91%
    13:00 +15°C° 0.4 mm 6 m/S 746 mmHg 91%
    14:00 +15°C° 0.4 mm 6 m/S 746 mmHg 92%
    15:00 +15°C° 0.4 mm 6 m/S 746 mmHg 90%
    16:00 +16°C° 0.4 mm 7 m/S 747 mmHg 89%
    17:00 +16°C° 0.4 mm 7 m/S 747 mmHg 87%
    18:00 +15°C° 0.1 mm 7 m/S 747 mmHg 87%
    19:00 +14°C° 0.1 mm 6 m/S 748 mmHg 88%
    20:00 +13°C° 0.1 mm 6 m/S 748 mmHg 88%
    21:00 +13°C° 0 mm 5 m/S 749 mmHg 87%
    22:00 +12°C° 0 mm 5 m/S 749 mmHg 85%
    23:00 +12°C° 0 mm 5 m/S 749 mmHg 84%

    1 Juni, Montag

    Zeit Temperatur Niederschläge Wind Luftdruck Luftfeuchtigkeit
    00:00 +12°C° 0 mm 5 m/S 749 mmHg 84%
    01:00 +10°C° 0 mm 5 m/S 750 mmHg 84%
    02:00 +10°C° 0 mm 5 m/S 750 mmHg 84%
    03:00 +10°C° 0 mm 5 m/S 750 mmHg 85%
    04:00 +9°C° 0 mm 5 m/S 750 mmHg 86%
    05:00 +9°C° 0 mm 5 m/S 750 mmHg 87%
    06:00 +12°C° 0 mm 5 m/S 751 mmHg 81%
    07:00 +13°C° 0 mm 6 m/S 751 mmHg 76%
    08:00 +14°C° 0 mm 7 m/S 751 mmHg 71%
    09:00 +15°C° 0 mm 7 m/S 751 mmHg 67%
    10:00 +17°C° 0 mm 7 m/S 752 mmHg 63%
    11:00 +18°C° 0 mm 7 m/S 752 mmHg 59%
    12:00 +18°C° 0 mm 7 m/S 752 mmHg 59%
    13:00 +19°C° 0 mm 6 m/S 752 mmHg 59%
    14:00 +20°C° 0 mm 6 m/S 752 mmHg 58%
    15:00 +19°C° 0.1 mm 6 m/S 752 mmHg 62%
    16:00 +19°C° 0.1 mm 5 m/S 752 mmHg 65%
    17:00 +17°C° 0.1 mm 5 m/S 751 mmHg 68%
    18:00 +17°C° 0 mm 4 m/S 752 mmHg 72%
    19:00 +15°C° 0 mm 4 m/S 752 mmHg 75%
    20:00 +14°C° 0 mm 3 m/S 752 mmHg 79%
    21:00 +13°C° 0 mm 3 m/S 752 mmHg 81%
    22:00 +12°C° 0 mm 3 m/S 752 mmHg 83%
    23:00 +12°C° 0 mm 3 m/S 753 mmHg 85%

    2 Juni, Dienstag

    Zeit Temperatur Niederschläge Wind Luftdruck Luftfeuchtigkeit
    00:00 +11°C° 0 mm 3 m/S 752 mmHg 88%
    01:00 +10°C° 0 mm 3 m/S 752 mmHg 91%
    02:00 +9°C° 0 mm 3 m/S 752 mmHg 94%
    03:00 +9°C° 0 mm 3 m/S 752 mmHg 94%
    04:00 +9°C° 0 mm 3 m/S 752 mmHg 93%
    05:00 +9°C° 0 mm 3 m/S 752 mmHg 93%
    06:00 +11°C° 0 mm 3 m/S 753 mmHg 87%
    07:00 +13°C° 0 mm 4 m/S 753 mmHg 80%
    08:00 +14°C° 0 mm 4 m/S 753 mmHg 73%
    09:00 +15°C° 0.1 mm 4 m/S 753 mmHg 69%
    10:00 +16°C° 0.1 mm 5 m/S 753 mmHg 64%
    11:00 +19°C° 0.1 mm 5 m/S 753 mmHg 59%
    12:00 +19°C° 0.1 mm 5 m/S 753 mmHg 58%
    13:00 +19°C° 0.1 mm 5 m/S 753 mmHg 56%
    14:00 +19°C° 0.1 mm 4 m/S 752 mmHg 55%
    15:00 +19°C° 0 mm 4 m/S 752 mmHg 57%
    16:00 +19°C° 0 mm 4 m/S 752 mmHg 60%
    17:00 +18°C° 0 mm 4 m/S 752 mmHg 62%
    18:00 +17°C° 0 mm 3 m/S 752 mmHg 68%
    19:00 +15°C° 0 mm 2 m/S 752 mmHg 74%
    20:00 +14°C° 0 mm 2 m/S 752 mmHg 80%
    21:00 +13°C° 0 mm 2 m/S 752 mmHg 83%
    22:00 +12°C° 0 mm 1 m/S 753 mmHg 85%
    23:00 +11°C° 0 mm 1 m/S 753 mmHg 88%
    Mehr zeigen